Grove City (29D)
Grove City, PA
Field Elevation: 1371
Lat: 41°08.00N  Long: 80°10.00W
CTAF/Unicom Freq: 122.7000
   
     For Weather-by-Phone, call 724 748-3504
Weather Advisories
7/31/2014 05:17 Z
Altimeter 30.05" Hg
Wind 270° @ 0 KT
Gusts --
Visibility 10 SM
Temperature 15° C (59° F)
Dewpoint 14° C (57° F)
Relative Humidity 97%
Density Altitude --
Condensation Altitude 1,600 feet
  Wind and Runways
Indicated Runway = 28
History
 
 
More Info
All DigiWx sites map
NOAA Forecast
 
Airport IQ 5010
(LHV) Lock Haven
(74PN) Altoona Regional
 
about DigiWx
 
FAA Disclaimer: The data displayed is for advisory purposes only and is not to be used for flight planning or operations. For official data, please call 724 748-3504 to hear the current automated AWOS voice message.
  METAR 29D 310517Z AUTO 27000KT 10SM 15/14 A3005